Погода в Калабосо

Венесуэла     8°55′21″N   67°25′41″W
темп.,
°C
ветер,
м/с
пор.,
м/с
влажн.,
%
обл.,
%
осадки,
мм/ч
давл.,
гПа
погр.,
м
13 апреля, вт
вт1323:00+26зюз1281100 0.3 101240
02:00+25зюз1284100 0.3 101062
05:00+25юз1387100 0.0 101198
08:00+26зюз127786 0.0 1013344
11:00+32юз1254100 0.0 10131222
14:00+35ююз234245 0.0 10092113
17:00+33з3344100 0.1 1006831
20:00+30св1156100 0.7 100935
14 апреля, ср
ср1423:00+30в1260100 0.0 101128
02:00+28ююв2267100 0.3 100957
05:00+26ю3679100 1.4 1009207
08:00+25ююз2487100 5.0 1012210
11:00+29юв4665100 5.8 1014832
14:00+30ююв4563100 8.7 10111262
17:00+26з2481100 5.1 1010326
20:00+24зсз3593100 7.4 1012345
15 апреля, чт
чт1523:00+24зсз2392100 0.3 1012246
02:00+24зсз2593100 0.3 1011324
05:00+23сз1493100 0.0 1010254
08:00+25юз1183100 0.0 1012234
11:00+30всв116199 0.0 1013773
14:00+32всв1252100 0.1 10091488
17:00+31в235472 0.1 10081061
20:00+28вюв116622 0.1 100912
16 апреля, пт
пт1623:00+27всв11696 0.0 101111
02:00+27всв227274 0.0 100938
05:00+26в3107345 0.2 1010409
08:00+27в496889 0.4 1012789
11:00+32в464966 0.0 10121818
14:00+32вюв3547100 0.3 10091646
17:00+33с024230 0.0 1007934
20:00+29зсз225637 0.0 100826
17 апреля, сб
сб1723:00+28всв256085 0.1 1011137
02:00+27всв386563 0.2 1010310
05:00+26всв277351 0.4 1011277
08:00+28в48659 0.4 1013973
11:00+32вюв4647100 0.0 10131848
14:00+34вюв4534100 0.0 10102613
17:00+35юв35307 0.0 10082724
20:00+30юз224496 0.0 101019